Regional Weather Roundup
Issued by NWS

Home | Current Version | Previous Version | Graphics & Text | Print | Product List | Glossary On
Versions: 1 2 3 4 5 6 7 8 9 10 11 12 13 14 15 16 17 18 19 20 21 22 23 24 25 26 27 28 29 30 31 32 33 34 35 36 37 38 39 40 41 42 43 44 45 46 47 48 49 50
000
ASUS43 KOAX 290010
RWRNE

WEATHER ROUNDUP FOR NEBRASKA
NATIONAL WEATHER SERVICE OMAHA NE
700 PM CDT THU AUG 28 2014

NOTES: SATELLITE DATA IS BEING USED TO AUGMENT CLOUD COVER ABOVE
       12000 FEET.
       "FAIR" INDICATES FEW OR NO CLOUDS BELOW 12,000 FEET WITH NO
       SIGNIFICANT WEATHER AND/OR OBSTRUCTIONS TO VISIBILITY.

  * THESE STATIONS DO NOT REPORT WEATHER SUCH AS RAIN...SNOW OR FOG.

NEZ001>004-019>022-054>056-290100-
NEBRASKA PANHANDLE

CITY           SKY/WX    TMP DP  RH WIND       PRES   REMARKS
SCOTTSBLUFF    CLOUDY    70  53  54 N6        30.04F
6HR MIN TEMP:  61; 6HR MAX TEMP:  70; 6HR PCP:  0.09;

ALLIANCE       CLOUDY    67  53  61 N17       29.97F
6HR MIN TEMP:  62; 6HR MAX TEMP:  68; 6HR PCP:  0.62;

CHADRON        CLOUDY    64  57  78 SW7       29.97F
6HR MIN TEMP:  64; 6HR MAX TEMP:  71; 6HR PCP:  0.05;

KIMBALL        CLOUDY    63  56  78 NW10      30.07F
SIDNEY         CLOUDY    67  56  67 NW14      30.04F
6HR MIN TEMP:  64; 6HR MAX TEMP:  70; 6HR PCP: TRACE;

$$

NEZ057>060-069>072-079>082-290100-
SOUTHWEST NEBRASKA

CITY           SKY/WX    TMP DP  RH WIND       PRES   REMARKS
NORTH PLATTE   PTSUNNY   79  60  52 NW16      29.87S
6HR MIN TEMP:  77; 6HR MAX TEMP:  82;

IMPERIAL       SUNNY     73  58  59 NW15      29.95R
6HR MIN TEMP:  73; 6HR MAX TEMP:  79;

LEXINGTON      MOSUNNY   79  68  70 S3        29.85S
MCCOOK         MOSUNNY   76  62  62 NW15      29.87S
6HR MIN TEMP:  76; 6HR MAX TEMP:  84;

OGALLALA       MOSUNNY   66  54  64 NW7       29.96R
$$

NEZ005>010-023>029-035>040-094-290100-
NORTH CENTRAL NEBRASKA

CITY           SKY/WX    TMP DP  RH WIND       PRES   REMARKS
VALENTINE      CLOUDY    72  63  73 N7        29.91R
6HR MIN TEMP:  72; 6HR MAX TEMP:  78; 6HR PCP: TRACE;

AINSWORTH      PTSUNNY   70  67  90 NW5       29.89R THUNDER
BROKEN BOW     PTSUNNY   81  67  62 S7        29.84R
6HR MIN TEMP:  78; 6HR MAX TEMP:  84;

O`NEILL        MOSUNNY   82  68  62 S3        29.82S
ORD            MOSUNNY   80  68  66 S8        29.81S
6HR MIN TEMP:  74; 6HR MAX TEMP:  82; 6HR PCP: TRACE;

THEDFORD       PTSUNNY   64  61  90 NW3       29.91R
$$

NEZ041-046>049-061>064-073>077-083>087-290100-
SOUTH CENTRAL NEBRASKA

CITY           SKY/WX    TMP DP  RH WIND       PRES   REMARKS
GRAND ISLAND   PTSUNNY   80  70  71 S9        29.83F
6HR MIN TEMP:  73; 6HR MAX TEMP:  81;

AURORA         PTSUNNY   78  72  82 CALM      29.83F
HASTINGS       PTSUNNY   79  66  64 S5        29.83F
6HR MIN TEMP:  72; 6HR MAX TEMP:  80;

HEBRON         PTSUNNY   78  64  61 SW8       29.84R
HOLDREGE       SUNNY     79  63  58 S5        29.85S
KEARNEY *      SUNNY     79  68  69 S9        29.84F
YORK           PTSUNNY   77 N/A N/A S6        29.84S
$$

NEZ011>018-030>034-042>045-290100-
NORTHEAST NEBRASKA

CITY           SKY/WX    TMP DP  RH WIND       PRES   REMARKS
NORFOLK        PTSUNNY   78  70  76 SE8       29.82F
6HR MIN TEMP:  76; 6HR MAX TEMP:  80;

ALBION         PTSUNNY   77  69  75 S7        29.82F
BLAIR          CLOUDY    79  71  75 SE7       29.85S
FREMONT        CLOUDY    79  70  74 SE8       29.84F
TEKAMAH        CLOUDY    79  73  82 SE8       29.83F
6HR MIN TEMP:  76; 6HR MAX TEMP:  80;

WAYNE          CLOUDY    78  73  84 SE9       29.83S
$$

NEZ050>053-065>068-078-088>093-290100-
SOUTHEAST NEBRASKA

CITY           SKY/WX    TMP DP  RH WIND       PRES   REMARKS
LINCOLN        CLOUDY    78  69  73 S6        29.84F
6HR MIN TEMP:  78; 6HR MAX TEMP:  82;

OMAHA EPPLEY   CLOUDY    80  71  74 SE9       29.84F
6HR MIN TEMP:  78; 6HR MAX TEMP:  83;

BEATRICE       CLOUDY    77  69  77 S6        29.85S
FALLS CITY     PTSUNNY   80  75  84 NW7       29.84S
6HR MIN TEMP:  78; 6HR MAX TEMP:  88; 6HR PCP: TRACE;

NEBRASKA CITY  CLOUDY    78  74  86 E3        29.85S
PLATTSMOUTH    CLOUDY    79  73  81 SE3       29.86S
$$

NEZ044-045-051>053-067-290100-
OMAHA AREA

CITY           SKY/WX    TMP DP  RH WIND       PRES   REMARKS
OMAHA EPPLEY   CLOUDY    80  71  74 SE9       29.84F
6HR MIN TEMP:  78; 6HR MAX TEMP:  83;

BLAIR          CLOUDY    79  71  75 SE7       29.85S
FREMONT        CLOUDY    79  70  74 SE8       29.84F
MILLARD        CLOUDY    80  73  79 SE6       29.84S
OFFUTT AFB     CLOUDY    79  78  98 E6        29.85F
PLATTSMOUTH    CLOUDY    79  73  81 SE3       29.86S
WAHOO          FAIR      77  70  78 SE5       29.84S
$$


USA.gov is the U.S. government's official web portal to all federal, state and local government web resources and services.